Date,TemperatureHighF,TemperatureAvgF,TemperatureLowF,DewpointHighF,DewpointAvgF,DewpointLowF,HumidityHigh,HumidityAvg,HumidityLow,PressureMaxIn,PressureMinIn,WindSpeedMaxMPH,WindSpeedAvgMPH,GustSpeedMaxMPH,PrecipitationSumIn
2013-3-1,59,47,39,35,33,29,79,60,34,30.42,30.26,19,8,25,0.00
2013-3-2,54,44,37,33,30,25,73,60,33,30.27,30.05,20,9,23,0.00
2013-3-3,40,34,26,30,17,3,79,52,21,30.15,30.05,18,5,21,0.00
2013-3-4,50,33,20,20,16,12,100,52,27,30.14,29.91,11,3,19,0.00
2013-3-5,42,33,28,31,23,16,87,68,52,29.92,29.65,9,3,14,0.02
2013-3-6,39,33,30,32,26,21,89,76,56,29.91,29.51,19,7,28,0.07
2013-3-7,42,33,25,26,22,18,80,64,40,29.98,29.89,16,5,17,0.01
2013-3-8,42,33,27,29,24,19,83,70,50,30.12,29.92,20,5,21,0.01
2013-3-9,42,30,24,24,19,16,74,64,43,30.38,30.11,14,7,20,0.00
2013-3-10,57,41,28,35,24,13,72,53,20,30.38,30.26,22,9,27,0.00
2013-3-11,53,45,38,38,35,31,82,70,52,30.31,30.19,14,6,21,0.00
2013-3-12,61,48,36,37,28,18,85,54,21,30.21,30.09,20,8,32,0.00
2013-3-13,64,51,42,35,29,21,63,43,30,30.19,30.11,18,6,21,0.00
2013-3-14,63,49,39,33,27,18,66,45,19,30.16,30.06,23,9,25,0.00
2013-3-15,55,47,39,36,32,29,76,57,40,30.28,30.09,16,5,23,0.00
2013-3-16,48,41,33,31,28,21,80,60,39,30.13,29.91,19,4,25,0.00
2013-3-17,40,32,26,24,18,13,77,57,40,30.12,29.95,17,5,35,0.00
2013-3-18,48,36,26,24,16,-7,75,50,10,30.14,30.05,15,5,19,0.00
2013-3-19,51,31,-7,44,19,-7,100,65,33,30.10,29.74,10,2,227,0.02
2013-3-20,45,40,30,38,30,16,83,70,47,30.02,29.63,25,6,41,1.41
2013-3-21,38,31,26,27,18,12,100,58,40,30.13,30.01,17,4,29,0.00
2013-3-22,34,30,27,28,19,7,100,71,33,30.21,30.09,227,6,227,0.55
2013-3-23,40,32,26,27,20,11,100,66,32,30.21,30.11,11,3,227,0.55
2013-3-24,43,34,25,23,20,15,71,55,42,30.16,30.04,11,3,16,0.00
2013-3-25,48,39,29,28,25,21,73,57,44,30.06,29.89,14,4,16,0.00
2013-3-26,46,40,34,36,33,28,87,77,65,29.96,29.90,14,3,16,0.02
2013-3-27,54,42,31,40,35,28,89,78,49,29.99,29.88,16,4,25,0.07
2013-3-28,55,45,39,41,38,36,90,79,49,30.11,29.97,12,3,36,0.12
2013-3-29,58,48,37,43,38,34,91,73,46,30.19,30.10,14,4,19,0.01
2013-3-30,66,51,35,43,38,31,85,63,34,30.20,30.06,15,6,64,0.00
2013-3-31,62,51,35,43,37,30,82,61,38,30.07,29.93,16,6,21,0.00